Weerstation Grootegast  Weerstation Grootegast


15 daagse weersverwachting Reggio nell'Emilia (IT)

  • Overzicht
  • Per uur
  • 15 dagen
  • Extra
  • Vergelijk
  • Kaarten
  • Dagkaart
  • Meer »
  • Info
  • Statistieken
  • Directe link
    Temp 6h Neerslag Wind  
 07:07     17:55    Daglengte: 10:48 Vandaag
13:00
28.5 mm
5
19:00
36.2 mm
4
 07:05     17:57    Daglengte: 10:52 Morgen
01:00
42.3 mm
3
warningclass
07:00
100.2 mm
3
warningclass
13:00
96.0 mm
2
19:00
105.5 mm
3
 07:04     17:58    Daglengte: 10:54 Zaterdag 24 Feb
01:00
111.4 mm
3
07:00
186.7 mm
3
warningclass
13:00
143.5 mm
3
19:00
143.6 mm
2
warningclass
 07:02     17:59    Daglengte: 10:57 Zondag 25 Feb
01:00
118.1 mm
1
warningclass
Locatie info
Region: Emilia-Romagna
Latitude: 44.6983°N
Longitude: 10.6312°E
69 masl
Temp/Neerslag /Baro Onweer/DauwpuntSneeuw
    Temp Baro 1h Neerslag Dauwpunt Wind UV BewolkingSneeuw  
 07:07     17:55    Daglengte: 10:48 Vandaag
08:00
Voelt als: -1.5°
1006.7 hPa 6.9 mm
21%
0.6°
3
Windvlaag: -2.6 m/s
81%3 cm
09:00
Voelt als: -1.5°
1006.6 hPa 3.6 mm
21%
0.6°
3
Windvlaag: -0.7 m/s
81%4 cm
10:00
Voelt als: -1.6°
1006.6 hPa 3.9 mm
21%
0.2°
3
Windvlaag: 0.7 m/s
81%5 cm
11:00
Voelt als: -1.4°
1006.7 hPa 4.3 mm
21%
0.3°
4
Windvlaag: 1.3 m/s
81%5 cm
12:00
Voelt als: -1.5°
1006.7 hPa 4.8 mm
21%
0.3°
5
Windvlaag: -0.9 m/s
81%5 cm
13:00
Voelt als: -1.3°
1006.5 hPa 5.1 mm
21%
0.6°
5
Windvlaag: -2 m/s
81%6 cm
14:00
Voelt als: -0.6°
1006.5 hPa 5.1 mm
21%
0.7°
5
Windvlaag: -1.7 m/s
81%6 cm
15:00
Voelt als: -0.3°
1006.5 hPa 5.1 mm
21%
0.7°
4
Windvlaag: -1.8 m/s
81%6 cm
16:00
Voelt als: -0.3°
1006.5 hPa 5.7 mm
21%
0.9°
4
Windvlaag: -1.4 m/s
81%6 cm
17:00
Voelt als: -0.5°
1006.7 hPa 6.6 mm
21%
1.1°
4
Windvlaag: -1.5 m/s
81%6 cm
18:00
Voelt als: -0.6°
1007.0 hPa 6.7 mm
21%
1.1°
4
Windvlaag: -0.5 m/s
80%7 cm
19:00
Voelt als: -0.4°
1007.2 hPa 6.9 mm
21%
1.3°
4
Windvlaag: -0.1 m/s
81%7 cm
20:00
Voelt als: -0.9°
1007.4 hPa 7.4 mm
21%
1.1°
4
Windvlaag: 0.6 m/s
81%7 cm
21:00
Voelt als: -1.1°
1007.5 hPa 7.7 mm
21%
1.1°
4
Windvlaag: 0.9 m/s
81%7 cm
22:00
Voelt als: -1.4°
1007.4 hPa 7.8 mm
21%
0.8°
5
Windvlaag: 1.1 m/s
81%7 cm
23:00
Voelt als: -2.1°
1007.4 hPa 9.0 mm
21%
0.8°
5
Windvlaag: 0.7 m/s
81%7 cm
 07:05     17:57    Daglengte: 10:52 Morgen
00:00
Voelt als: -2.6°
1007.6 hPa 10.3 mm
21%
0.6°
5
Windvlaag: -0.3 m/s
81%9 cm
01:00
Voelt als: -3.1°
1007.5 hPa
21%
0.1°
3
Windvlaag: -0.8 m/s
81%11 cm
02:00
Voelt als: -2.4°
1007.1 hPa 28.7 mm
21%
0.0°
2
Windvlaag: -0.7 m/s
81%13 cm warningclass
03:00
Voelt als: -1.7°
1006.5 hPa 13.5 mm
21%
-0.2°
2
Windvlaag: -0.9 m/s
81%14 cm warningclass
04:00
Voelt als: -1.8°
1006.0 hPa 14.1 mm
21%
-0.2°
2
Windvlaag: 1 m/s
81%15 cm warningclass
05:00
Voelt als: -1.8°
1005.8 hPa 14.3 mm
21%
-0.2°
2
Windvlaag: -0.4 m/s
81%16 cm warningclass
06:00
Voelt als: -2.3°
1005.8 hPa 14.7 mm
21%
-0.3°
2
Windvlaag: -0 m/s
79%17 cm warningclass
07:00
Voelt als: -2.8°
1005.9 hPa 14.8 mm
21%
-0.5°
3
Windvlaag: 0.1 m/s
79%18 cm warningclass
08:00
Voelt als: -2.6°
1006.0 hPa 15.0 mm
21%
-0.5°
3
Windvlaag: 0.2 m/s
77%18 cm warningclass
09:00
Voelt als: -2.3°
1006.5 hPa 15.5 mm
21%
-0.3°
2
Windvlaag: 0.8 m/s
81%19 cm warningclass
10:00
Voelt als: -2.2°
1006.7 hPa 16.1 mm
21%
-0.3°
2
Windvlaag: 0 m/s
81%20 cm warningclass
11:00
Voelt als: -2.3°
1007.0 hPa 16.2 mm
21%
-0.3°
3
Windvlaag: -0.2 m/s
81%20 cm warningclass
12:00
Voelt als: -1.5°
1007.0 hPa 16.5 mm
21%
-0.0°
3
Windvlaag: -0.3 m/s
81%20 cm
13:00
Voelt als: -0.1°
1007.1 hPa 16.7 mm
21%
0.3°
2
Windvlaag: -0.3 m/s
81%20 cm
14:00
Voelt als: 0.6°
1007.3 hPa 16.8 mm
21%
0.7°
1
Windvlaag: -0.3 m/s
81%19 cm
15:00
Voelt als: 1.2°
1007.2 hPa 17.0 mm
21%
1.0°
1
Windvlaag: 0.1 m/s
80%19 cm
16:00
Voelt als: 1.1°
1007.1 hPa 17.3 mm
21%
1.1°
1
Windvlaag: 0.5 m/s
81%18 cm
17:00
Voelt als: 0.7°
1007.6 hPa 17.6 mm
21%
1.2°
2
Windvlaag: 0.7 m/s
81%18 cm
18:00
Voelt als: -0.4°
1008.2 hPa 18.1 mm
21%
0.9°
2
Windvlaag: 1.4 m/s
81%18 cm
19:00
Voelt als: -0.9°
1008.5 hPa 18.7 mm
21%
0.6°
3
Windvlaag: 1.5 m/s
81%18 cm
20:00
Voelt als: -1.3°
1008.9 hPa 20.0 mm
21%
0.4°
3
Windvlaag: 0.6 m/s
81%18 cm
21:00
Voelt als: -1.4°
1009.1 hPa 21.6 mm
21%
0.4°
3
Windvlaag: 0.8 m/s
81%18 cm
22:00
Voelt als: -1.5°
1009.3 hPa 22.8 mm
21%
0.2°
3
Windvlaag: 0.4 m/s
81%19 cm
23:00
Voelt als: -2.0°
1009.2 hPa 23.4 mm
21%
-0.1°
4
Windvlaag: 0.7 m/s
81%19 cm
 07:04     17:58    Daglengte: 10:54 Zaterdag 24 Feb
00:00
Voelt als: -2.4°
1009.2 hPa 23.5 mm
21%
-0.0°
4
Windvlaag: 0.6 m/s
81%20 cm
01:00
Voelt als: -2.0°
1009.1 hPa
21%
0.2°
3
Windvlaag: 1.2 m/s
81%21 cm
02:00
Voelt als: -2.1°
1009.0 hPa 66.3 mm
21%
0.6°
4
Windvlaag: 1.3 m/s
78%21 cm
03:00
Voelt als: -1.5°
1008.8 hPa 24.1 mm
21%
0.7°
3
Windvlaag: 2 m/s
79%20 cm
04:00
Voelt als: -3.1°
1010.2 hPa 23.9 mm
100%
0.4°
3
Windvlaag: 3.3 m/s
100%20 cm warningclass
05:00
Voelt als: -2.4°
1010.6 hPa 23.9 mm
100%
0.6°
3
Windvlaag: 3 m/s
100%20 cm warningclass
06:00
Voelt als: -1.5°
1011.1 hPa 24.3 mm
100%
0.7°
2
Windvlaag: 3.1 m/s
100%20 cm warningclass
07:00
Voelt als: -2.2°
1011.5 hPa 24.0 mm
100%
0.8°
3
Windvlaag: 3.7 m/s
97%20 cm warningclass
08:00
Voelt als: -1.7°
1012.2 hPa 23.6 mm
100%
0.8°
2
Windvlaag: 3.6 m/s
98%20 cm warningclass
09:00
Voelt als: -1.8°
1012.4 hPa 23.6 mm
100%
0.7°
2
Windvlaag: 2.7 m/s
100%19 cm warningclass
10:00
Voelt als: -1.6°
1012.9 hPa 24.6 mm
100%
0.6°
3
Windvlaag: 2.5 m/s
99%19 cm
11:00
Voelt als: -2.0°
1013.0 hPa 23.7 mm
100%
0.7°
3
Windvlaag: 2.6 m/s
100%18 cm
12:00
Voelt als: -1.1°
1013.1 hPa 23.8 mm
100%
0.8°
3
Windvlaag: 2.6 m/s
98%18 cm
13:00
Voelt als: -0.6°
1012.8 hPa 24.3 mm
100%
0.8°
3
Windvlaag: 2.6 m/s
94%17 cm
14:00
Voelt als: -0.6°
1012.6 hPa 24.2 mm
100%
0.7°
3
Windvlaag: 2.6 m/s
89%16 cm
15:00
Voelt als: -0.7°
1012.4 hPa 24.3 mm
100%
0.7°
3
Windvlaag: 2.8 m/s
88%15 cm
16:00
Voelt als: -0.5°
1012.3 hPa 24.2 mm
100%
1.1°
3
Windvlaag: 3 m/s
85%15 cm
17:00
Voelt als: -0.4°
1012.1 hPa 23.8 mm
100%
1.3°
2
Windvlaag: 2.9 m/s
87%14 cm
18:00
Voelt als: -0.5°
1012.2 hPa 23.6 mm
100%
-0.4°
2
Windvlaag: 2.1 m/s
85%14 cm
19:00
Voelt als: -1.5°
1012.6 hPa 23.6 mm
100%
0.3°
2
Windvlaag: 1.2 m/s
84%14 cm warningclass
20:00
Voelt als: -1.8°
1012.9 hPa 23.6 mm
100%
0.6°
2
Windvlaag: 1.8 m/s
82%14 cm warningclass
21:00
Voelt als: -1.5°
1013.4 hPa 23.7 mm
100%
0.7°
3
Windvlaag: 1.9 m/s
80%14 cm
22:00
Voelt als: -1.8°
1013.8 hPa 23.6 mm
100%
0.5°
2
Windvlaag: 2.1 m/s
80%14 cm warningclass
23:00
Voelt als: -0.8°
1014.0 hPa 23.6 mm
100%
0.3°
1
Windvlaag: 1.4 m/s
79%14 cm warningclass
 07:02     17:59    Daglengte: 10:57 Zondag 25 Feb
00:00
Voelt als: -0.3°
1014.2 hPa 23.7 mm
100%
-0.7°
1
Windvlaag: 0.8 m/s
76%14 cm warningclass
01:00
Voelt als: -0.2°
1014.3 hPa
100%
-0.9°
1
Windvlaag: -0.3 m/s
78%14 cm
02:00
-0°
Voelt als: -0.2°
1015.8 hPa 69.2 mm
100%
-1.9°
1
Windvlaag: 9.1 m/s
77%14 cm warningclass
03:00
-0°
Voelt als: -0.5°
1015.7 hPa 69.2 mm
100%
-2.7°
1
Windvlaag: 9.2 m/s
81%14 cm warningclass
04:00
-2°
Voelt als: -2.4°
1015.2 hPa 69.2 mm
100%
-3.8°
1
Windvlaag: 9.3 m/s
49%14 cm warningclass
05:00
-3°
Voelt als: -5.3°
1015.0 hPa 69.2 mm
100%
-4.6°
1
Windvlaag: 9.2 m/s
16%14 cm warningclass
06:00
-4°
Voelt als: -6.7°
1015.0 hPa 69.2 mm
100%
-5.2°
2
Windvlaag: 9.2 m/s
19%14 cm warningclass
07:00
-4°
Voelt als: -7.2°
1015.2 hPa 69.2 mm
100%
-5.5°
2
Windvlaag: 9.4 m/s
22%14 cm warningclass
Temp/Neerslag /Baro Onweer/DauwpuntSneeuw
    Temp Baro Neerslag Dauwpunt Wind BewolkingSneeuw  
 07:07     17:55    Daglengte: 10:48 Vandaag
10:00
Voelt als: -1.6°
1006.6 hPa 14.4 mm 0.2°
3
81%5 cm
13:00
Voelt als: -1.3°
1006.5 hPa 14.2 mm 0.6°
5
81%6 cm
16:00
Voelt als: -0.3°
1006.5 hPa 15.9 mm 0.9°
4
81%6 cm
19:00
Voelt als: -0.4°
1007.2 hPa 20.3 mm 1.3°
4
81%7 cm
22:00
Voelt als: -1.4°
1007.4 hPa 22.9 mm 0.8°
5
81%7 cm
 07:05     17:57    Daglengte: 10:52 Morgen
01:00
Voelt als: -3.1°
1007.5 hPa 19.3 mm 0.1°
3
81%11 cm warningclass
04:00
Voelt als: -1.8°
1006.0 hPa 56.3 mm -0.2°
2
81%15 cm warningclass
07:00
Voelt als: -2.8°
1005.9 hPa 43.9 mm -0.5°
3
79%18 cm warningclass
10:00
Voelt als: -2.2°
1006.7 hPa 46.5 mm -0.3°
2
81%20 cm warningclass
13:00
Voelt als: -0.1°
1007.1 hPa 49.4 mm 0.3°
2
81%20 cm
16:00
Voelt als: 1.1°
1007.1 hPa 51.1 mm 1.1°
1
81%18 cm
19:00
Voelt als: -0.9°
1008.5 hPa 54.4 mm 0.6°
3
81%18 cm
22:00
Voelt als: -1.5°
1009.3 hPa 64.4 mm 0.2°
3
81%19 cm
 07:04     17:58    Daglengte: 10:54 Zaterdag 24 Feb
01:00
Voelt als: -2.0°
1009.1 hPa 47.0 mm 0.2°
3
81%21 cm
04:00
Voelt als: -3.1°
1010.2 hPa 114.4 mm 0.4°
3
100%20 cm warningclass
07:00
Voelt als: -2.2°
1011.5 hPa 72.3 mm 0.8°
3
97%20 cm warningclass
10:00
Voelt als: -1.6°
1012.9 hPa 71.8 mm 0.6°
3
99%19 cm
13:00
Voelt als: -0.6°
1012.8 hPa 71.8 mm 0.8°
3
94%17 cm
16:00
Voelt als: -0.5°
1012.3 hPa 72.6 mm 1.1°
3
85%15 cm
19:00
Voelt als: -1.5°
1012.6 hPa 71.0 mm 0.3°
2
84%14 cm warningclass
22:00
Voelt als: -1.8°
1013.8 hPa 70.8 mm 0.5°
2
80%14 cm warningclass
 07:02     17:59    Daglengte: 10:57 Zondag 25 Feb
01:00
Voelt als: -0.2°
1014.3 hPa 47.3 mm -0.9°
1
78%14 cm warningclass
04:00
-2°
Voelt als: -2.4°
1015.2 hPa 207.5 mm -3.8°
1
49%14 cm warningclass
07:00
-4°
Voelt als: -7.2°
1015.2 hPa 207.5 mm -5.5°
2
22%14 cm warningclass
10:00
Voelt als: -3.4°
1011.1 hPa 0.4 mm -1.5°
5
1%
13:00
Voelt als: -3.5°
1011.2 hPa 0.9 mm -1.1°
6
1%
16:00
Voelt als: -3.6°
1010.5 hPa 0.5 mm -1.3°
5
1%
19:00
Voelt als: -4.8°
1011.1 hPa 1.3 mm -2.5°
5
1% warningclass
22:00
-1°
Voelt als: -5.8°
1011.7 hPa 0.7 mm -3.1°
5
1% warningclass
 07:00     18:01    Daglengte: 11:01 Maandag 26 Feb
01:00
-1°
Voelt als: -6.7°
1010.7 hPa 1.8 mm -3.3°
5
1% warningclass
04:00
-2°
Voelt als: -7.9°
1008.8 hPa 1.2 mm -4.1°
5
1% warningclass
07:00
-3°
Voelt als: -8.4°
1008.0 hPa 2.7 mm -4.5°
5
1% warningclass
10:00
-2°
Voelt als: -7.6°
1007.6 hPa 1.3 mm -4.2°
5
1% warningclass
13:00
-1°
Voelt als: -6.0°
1006.8 hPa 2.3 mm -3.8°
5
1% warningclass
16:00
-0°
Voelt als: -3.5°
1006.1 hPa 0.2 mm -4.0°
3
1% warningclass
19:00
-3°
Voelt als: -5.2°
1007.2 hPa 0.2 mm -5.1°
2
1% warningclass
22:00
-4°
Voelt als: -7.1°
1008.0 hPa   -5.9°
2
1%
 06:58     18:02    Daglengte: 11:04 Dinsdag 27 Feb
01:00
-4°
Voelt als: -7.4°
1008.1 hPa   -5.8°
2
1%
04:00
-5°
Voelt als: -8.1°
1007.8 hPa   -6.7°
2
1%
07:00
-5°
Voelt als: -8.2°
1008.3 hPa   -7.0°
2
1%
10:00
-1°
Voelt als: -1.4°
1008.8 hPa   -4.4°
0
0%
13:00
Voelt als: -1.5°
1008.9 hPa   -4.3°
2
0%
16:00
Voelt als: -1.8°
1009.0 hPa   -4.0°
3
0%
19:00
-2°
Voelt als: -3.7°
1010.9 hPa   -4.5°
1
0%
22:00
-3°
Voelt als: -4.3°
1013.0 hPa   -5.0°
1
0%
 06:57     18:03    Daglengte: 11:06 Woensdag 28 Feb
01:00
-3°
Voelt als: -5.4°
1014.1 hPa   -5.7°
2
0%
04:00
-3°
Voelt als: -6.2°
1014.5 hPa   -6.3°
2
0%
07:00
-4°
Voelt als: -6.8°
1015.8 hPa   -6.5°
2
0%
10:00
Voelt als: 0.0°
1017.1 hPa   -5.1°
0
0%
13:00
Voelt als: 0.5°
1017.1 hPa   -4.1°
2
0%
16:00
Voelt als: 1.1°
1017.1 hPa   -2.8°
2
1%
19:00
Voelt als: -2.0°
1019.1 hPa   -2.4°
2
1%
22:00
-1°
Voelt als: -2.7°
1020.6 hPa   -3.3°
1
0%
 06:55     18:05    Daglengte: 11:10 Donderdag 01 Maa
01:00
-1°
Voelt als: -2.0°
1020.8 hPa   -4.2°
1
1%
04:00
-1°
Voelt als: -2.2°
1019.8 hPa   -4.1°
1
1%
07:00
-1°
Voelt als: -3.2°
1019.5 hPa 0.4 mm -3.9°
2
1% warningclass
13:00
Voelt als: -2.5°
1017.4 hPa 1.1 mm -2.2°
3
1% warningclass
19:00
-0°
Voelt als: -0.9°
1015.7 hPa 6.2 mm -0.5°
1
1% warningclass
 06:53     18:06    Daglengte: 11:13 Vrijdag 02 Maa
01:00
-0°
Voelt als: -1.7°
1014.0 hPa 9.5 mm -0.4°
1
1% warningclass
07:00
-0°
Voelt als: -1.8°
1012.1 hPa 6.5 mm -0.4°
1
1% warningclass
13:00
Voelt als: 0.7°
1013.1 hPa 1.2 mm 0.9°
1
1% warningclass
19:00
Voelt als: 0.6°
1013.6 hPa 0.6 mm 0.5°
0
1% warningclass
 06:52     18:08    Daglengte: 11:16 Zaterdag 03 Maa
01:00
Voelt als: 1.2°
1013.4 hPa 0.1 mm 1.3°
1
1%
07:00
Voelt als: 0.6°
1011.5 hPa   0.2°
1
1%
13:00
Voelt als: 3.0°
1009.4 hPa   2.9°
1
1%
19:00
Voelt als: 1.9°
1008.7 hPa 0.1 mm 2.3°
1
1%
 06:50     18:09    Daglengte: 11:19 Zondag 04 Maa
01:00
Voelt als: 1.6°
1009.8 hPa 0.2 mm 2.6°
1
1%
07:00
Voelt als: 1.3°
1007.7 hPa 2.0 mm 0.6°
0
0%
13:00
1007.3 hPa 2.3 mm 5.4°
1
0%
19:00
Voelt als: 2.7°
1006.8 hPa 2.1 mm 2.4°
0
0%
 06:48     18:10    Daglengte: 11:22 Maandag 05 Maa
01:00
1007.9 hPa 2.1 mm 1.3°
0
0%
07:00
Voelt als: 1.4°
1008.0 hPa 1.4 mm 0.7°
0
0%
13:00
Voelt als: 6.7°
1008.3 hPa 1.3 mm 5.5°
1
0%
19:00
Voelt als: 3.4°
1008.3 hPa 1.4 mm 2.8°
0
0%
 06:46     18:11    Daglengte: 11:25 Dinsdag 06 Maa
01:00
1009.0 hPa 1.4 mm 1.6°
0
0%
07:00
1007.7 hPa 2.0 mm 2.0°
1
0%
13:00
Voelt als: 7.4°
1006.8 hPa 2.8 mm 6.4°
1
0%
19:00
Voelt als: 5.1°
1006.6 hPa 1.9 mm 4.7°
0
0%
 06:44     18:13    Daglengte: 11:29 Woensdag 07 Maa
01:00
Voelt als: 4.1°
1007.9 hPa 0.8 mm 3.7°
0
0%
07:00
Voelt als: 3.2°
1008.4 hPa 0.8 mm 2.8°
1
0%
13:00
Voelt als: 8.5°
1009.4 hPa 1.6 mm 7.3°
1
0%
19:00
Voelt als: 5.5°
1009.7 hPa 1.9 mm 4.9°
1
0%
 06:43     18:14    Daglengte: 11:31 Donderdag 08 Maa
01:00
1011.0 hPa 1.2 mm 3.9°
1
0%
07:00
Voelt als: 4.3°
1010.8 hPa 0.9 mm 3.7°
1
0%
13:00
10°
Voelt als: 9.9°
1010.9 hPa 1.2 mm 8.2°
1
0%
19:00
Voelt als: 6.9°
1010.4 hPa 0.9 mm 6.2°
1
0%
 06:41     18:15    Daglengte: 11:34 Vrijdag 09 Maa
01:00
1010.7 hPa 0.9 mm 5.1°
1
0%
07:00
1009.8 hPa 1.1 mm 4.5°
0
0%
  CAPE Lifted Index Hail Supercell Tornado SRH 3km CL BTM PRES CL TOP PRES Swiss DWD icon SMHI TS
 07:07     17:55    Daglengte: 10:48 Vandaag
08:00 0 J/kg 10.1 K 0 % 0 % 0 % 0 m²/s² 0 0 10.64
09:00 1 J/kg 10.3 K 0 % 0 % 0 % 0 m²/s² 0 0 10.81
10:00 1 J/kg 10.6 K 0 % 0 % 0 % 0 m²/s² 0 0 11.11
11:00 4 J/kg 10.3 K 0 % 0 % 0 % 0 m²/s² 0 0 10.78
12:00 5 J/kg 9.2 K 0 % 0 % 0 % 0 m²/s² 0 0 9.68
13:00 5 J/kg 7.6 K 0 % 0 % 0 % 0 m²/s² 0 0 8.2
14:00 5 J/kg 6.2 K 0 % 0 % 0 % 0 m²/s² 0 0 6.8
15:00 2 J/kg 4.6 K 0 % 0 % 0 % 0 m²/s² 0 0 5.08
16:00 2 J/kg 4.6 K 0 % 0 % 0 % 0 m²/s² 0 0 5.35
17:00 1 J/kg 4.7 K 0 % 0 % 0 % 0 m²/s² 0 0 6.17
18:00 0 J/kg 4.2 K 0 % 0 % 0 % 0 m²/s² 0 0 6.81
19:00 0 J/kg 4.7 K 0 % 0 % 0 % 0 m²/s² 0 0 7.46
20:00 0 J/kg 5.1 K 0 % 0 % 0 % 0 m²/s² 0 0 6.93
21:00 0 J/kg 4.8 K 0 % 0 % 0 % 0 m²/s² 0 0 5.4
22:00 0 J/kg 4.5 K 0 % 0 % 0 % 0 m²/s² 0 0 4.92
23:00 1 J/kg 5.0 K 0 % 0 % 0 % 0 m²/s² 0 0 5.39
 07:05     17:57    Daglengte: 10:52 Morgen
00:00 1 J/kg 5.7 K 0 % 0 % 0 % 0 m²/s² 0 0 6.09
01:00 1 J/kg 5.8 K 0 % 0 % 0 % 0 m²/s² 0 0 6.16
02:00 0 J/kg 6.1 K 0 % 0 % 0 % 0 m²/s² 0 0 7.09
03:00 1 J/kg 6.9 K 0 % 0 % 0 % 0 m²/s² 0 0 8.73
04:00 0 J/kg 6.7 K 0 % 0 % 0 % 0 m²/s² 0 0 7.93
05:00 0 J/kg 6.3 K 0 % 0 % 0 % 0 m²/s² 0 0 7.35
06:00 1 J/kg 5.1 K 0 % 0 % 0 % 0 m²/s² 0 0 6.48
07:00 1 J/kg 4.4 K 0 % 0 % 0 % 0 m²/s² 0 0 5.93
08:00 1 J/kg 3.6 K 0 % 0 % 0 % 0 m²/s² 0 0 5.1
09:00 1 J/kg 3.1 K 0 % 0 % 0 % 0 m²/s² 0 0 4.63
10:00 1 J/kg 3.2 K 0 % 0 % 0 % 0 m²/s² 0 0 5.72
11:00 1 J/kg 4.3 K 0 % 0 % 0 % 0 m²/s² 0 0 8.11
12:00 0 J/kg 5.0 K 0 % 0 % 0 % 0 m²/s² 0 0 9.02
13:00 0 J/kg 5.2 K 0 % 0 % 0 % 0 m²/s² 0 0 9.13
14:00 0 J/kg 4.7 K 0 % 0 % 0 % 0 m²/s² 0 0 9.26
15:00 0 J/kg 5.1 K 0 % 0 % 0 % 0 m²/s² 0 0 8.28
16:00 0 J/kg 5.1 K 0 % 0 % 0 % 0 m²/s² 0 0 6.39
17:00 0 J/kg 5.5 K 0 % 0 % 0 % 0 m²/s² 0 0 5.86
18:00 0 J/kg 6.4 K 0 % 0 % 0 % 0 m²/s² 0 0 6.79
19:00 0 J/kg 7.1 K 0 % 0 % 0 % 0 m²/s² 0 0 7.43
20:00 1 J/kg 7.6 K 0 % 0 % 0 % 0 m²/s² 0 0 7.87
21:00 1 J/kg 8.4 K 0 % 0 % 0 % 0 m²/s² 0 0 8.67
22:00 1 J/kg 8.9 K 0 % 0 % 0 % 0 m²/s² 0 0 9.05
23:00 2 J/kg 7.6 K 0 % 0 % 0 % 0 m²/s² 0 0 8.02
 07:04     17:58    Daglengte: 10:54 Zaterdag 24 Feb
00:00 0 J/kg 5.6 K 0 % 0 % 0 % 0 m²/s² 0 0 6.02
01:00 0 J/kg 4.2 K 0 % 0 % 0 % 0 m²/s² 0 0 5.13
02:00 0 J/kg 3.6 K 0 % 0 % 0 % 0 m²/s² 0 0 4.17
03:00 0 J/kg 4.3 K 0 % 0 % 0 % 0 m²/s² 0 0 5.02
04:00 0 J/kg 4.5 K 0 % 0 % 0 % 0 m²/s² 0 0 5.22
05:00 0 J/kg 4.4 K 0 % 0 % 0 % 0 m²/s² 0 0 4.82
06:00 0 J/kg 4.5 K 0 % 0 % 0 % 0 m²/s² 0 0 4.92
07:00 0 J/kg 4.6 K 0 % 0 % 0 % 0 m²/s² 0 0 5.35
08:00 0 J/kg 4.9 K 0 % 0 % 0 % 0 m²/s² 0 0 6.19
09:00 0 J/kg 5.2 K 0 % 0 % 0 % 0 m²/s² 0 0 6.97
10:00 0 J/kg 5.1 K 0 % 0 % 0 % 0 m²/s² 0 0 7.23
11:00 0 J/kg 5.4 K 0 % 0 % 0 % 0 m²/s² 0 0 7.8
12:00 0 J/kg 5.5 K 0 % 0 % 0 % 0 m²/s² 0 0 8.44
13:00 0 J/kg 5.9 K 0 % 0 % 0 % 0 m²/s² 0 0 8.6
14:00 0 J/kg 5.7 K 0 % 0 % 0 % 0 m²/s² 0 0 7.89
15:00 0 J/kg 5.4 K 0 % 0 % 0 % 0 m²/s² 0 0 7.47
16:00 0 J/kg 5.3 K 0 % 0 % 0 % 0 m²/s² 0 0 7.37
17:00 0 J/kg 5.3 K 0 % 0 % 0 % 0 m²/s² 0 0 7.7
18:00 0 J/kg 5.4 K 0 % 0 % 0 % 0 m²/s² 0 0 7.89
19:00 0 J/kg 6.1 K 0 % 0 % 0 % 0 m²/s² 0 0 8.59
20:00 0 J/kg 6.9 K 0 % 0 % 0 % 0 m²/s² 0 0 9.3
21:00 0 J/kg 7.8 K 0 % 0 % 0 % 0 m²/s² 0 0 10.14
22:00 0 J/kg 8.2 K 0 % 0 % 0 % 0 m²/s² 0 0 10.33
23:00 0 J/kg 8.5 K 0 % 0 % 0 % 0 m²/s² 0 0 10.36
 07:02     17:59    Daglengte: 10:57 Zondag 25 Feb
00:00 0 J/kg 8.9 K 0 % 0 % 0 % 0 m²/s² 0 0 10.49
01:00 0 J/kg 9.1 K 0 % 0 % 0 % 0 m²/s² 0 0 10.45
02:00 0 J/kg 9.4 K 0 % 0 % 0 % 0 m²/s² 0 0 10.75
03:00 0 J/kg 9.6 K 0 % 0 % 0 % 0 m²/s² 0 0 10.86
04:00 0 J/kg 10.0 K 0 % 0 % 0 % 0 m²/s² 0 0 11.2
05:00 0 J/kg 10.3 K 0 % 0 % 0 % 0 m²/s² 0 0 11.26
06:00 0 J/kg 10.4 K 0 % 0 % 0 % 0 m²/s² 0 0 11.27
07:00 0 J/kg 10.8 K 0 % 0 % 0 % 0 m²/s² 0 0 11.76
Temp Baro Wind Neerslag
  EWN Forecast EWN WRFDA DWD ICON FMI HIRLAM MET Norway GFS
 07:07     17:55    Daglengte: 10:48 Vandaag
10:00 1.8° 1006.6 hPa 3.4 m/s 14.4 mm 0.8° 1004.5 hPa 4.3 m/s 23.8 mm 3.3° 1006.5 hPa 3.7 m/s 0.0 mm 3.3° 1006.3 hPa 2.3 m/s
13:00 2.9° 1006.5 hPa 5.1 m/s 14.2 mm 1.7° 1004.2 hPa 5.2 m/s 34.7 mm 4.7° 1006.3 hPa 6.3 m/s 0.0 mm 4.0° 1006.5 hPa 3.2 m/s
16:00 3.3° 1006.5 hPa 4.2 m/s 15.9 mm 2.2° 1003.5 hPa 2.9 m/s 44.6 mm 4.2° 1006.4 hPa 5.6 m/s 0.0 mm 3.8° 1006.5 hPa 2.8 m/s
19:00 3.1° 1007.2 hPa 3.9 m/s 20.3 mm 3.1° 1003.1 hPa 5.2 m/s 59.0 mm 3.3° 1007.4 hPa 3.5 m/s 0.0 mm 3.4° 1007.0 hPa 2.3 m/s
22:00 2.7° 1007.4 hPa 4.7 m/s 22.9 mm 2.6° 1004.1 hPa 5.8 m/s 67.2 mm 3.3° 1007.3 hPa 4.8 m/s 0.0 mm 3.3° 1007.5 hPa 2.6 m/s
 07:05     17:57    Daglengte: 10:52 Morgen
01:00 0.6° 1007.5 hPa 3.4 m/s 19.3 mm 0.1° 1004.6 hPa 4.0 m/s 83.0 mm 1.4° 1007.3 hPa 3.4 m/s 0.0 mm 2.9° 1006.8 hPa 2.4 m/s
04:00 0.3° 1006.0 hPa 1.7 m/s 56.3 mm 0.0° 1003.7 hPa 1.5 m/s 106.2 mm 1.0° 1005.5 hPa 1.7 m/s 0.0 mm 2.4° 1005.4 hPa 1.9 m/s
07:00 0.2° 1005.9 hPa 2.5 m/s 43.9 mm 0.1° 1004.1 hPa 2.4 m/s 120.3 mm 1.3° 1005.3 hPa 4.0 m/s 0.0 mm 2.3° 1005.0 hPa 1.6 m/s
10:00 0.7° 1006.7 hPa 2.5 m/s 46.5 mm 0.4° 1005.6 hPa 2.2 m/s 134.5 mm 2.3° 1006.0 hPa 4.0 m/s 0.0 mm 2.8° 1006.7 hPa 1.5 m/s
13:00 1.7° 1007.1 hPa 1.7 m/s 49.4 mm 1.5° 1006.1 hPa 2.5 m/s 144.4 mm 3.6° 1006.4 hPa 1.1 m/s 0.0 mm 3.3° 1007.6 hPa 3.0 m/s
16:00 2.4° 1007.1 hPa 1.5 m/s 51.1 mm 2.4° 1006.1 hPa 2.0 m/s 147.4 mm 4.8° 1006.5 hPa 1.3 m/s 0.0 mm 3.4° 1007.3 hPa 2.3 m/s
19:00 2.2° 1008.5 hPa 3.0 m/s 54.4 mm 1.9° 1007.2 hPa 2.3 m/s 153.3 mm 5.5° 1008.3 hPa 5.1 m/s 0.0 mm 3.1° 1007.8 hPa 1.8 m/s
22:00 1.8° 1009.3 hPa 3.3 m/s 64.4 mm 1.6° 1008.2 hPa 1.6 m/s 176.7 mm 4.8° 1009.1 hPa 4.0 m/s 0.0 mm 3.1° 1008.1 hPa 3.2 m/s
 07:04     17:58    Daglengte: 10:54 Zaterdag 24 Feb
01:00 1.5° 1009.1 hPa 3.3 m/s 47.0 mm 1.4° 1007.1 hPa 4.3 m/s 201.1 mm 3.3° 1009.0 hPa 2.7 m/s 0.0 mm 3.1° 1007.4 hPa 1.8 m/s
04:00 0.4° 1010.2 hPa 3.1 m/s 114.4 mm 1.8° 1008.3 hPa 1.7 m/s 206.9 mm 3.6° 1007.1 hPa 3.7 m/s
07:00 0.8° 1011.5 hPa 2.6 m/s 72.3 mm 2.0° 1009.6 hPa 1.2 m/s 207.4 mm 4.3° 1007.6 hPa 2.4 m/s
10:00 1.4° 1012.9 hPa 2.7 m/s 71.8 mm 3.2° 1012.1 hPa 2.0 m/s 207.4 mm 5.7° 1008.8 hPa 4.0 m/s
13:00 2.3° 1012.8 hPa 2.9 m/s 71.8 mm 5.3° 1012.4 hPa 1.7 m/s 207.4 mm 7.4° 1009.1 hPa 3.9 m/s
16:00 2.4° 1012.3 hPa 3.0 m/s 72.6 mm 5.8° 1011.7 hPa 2.0 m/s 207.5 mm 7.9° 1008.6 hPa 3.0 m/s
19:00 1.0° 1012.6 hPa 2.2 m/s 71.0 mm 1.6° 1012.4 hPa 2.5 m/s 207.5 mm 6.5° 1009.6 hPa 2.7 m/s
22:00 0.8° 1013.8 hPa 2.2 m/s 70.8 mm 0.0° 1014.5 hPa 1.2 m/s 207.5 mm 5.5° 1010.5 hPa 3.1 m/s
 07:02     17:59    Daglengte: 10:57 Zondag 25 Feb
01:00 0.4° 1014.3 hPa 0.9 m/s 47.3 mm 0.1° 1015.7 hPa 0.7 m/s 207.5 mm 4.8° 1010.4 hPa 4.0 m/s
04:00 -1.8° 1015.2 hPa 0.8 m/s 207.5 mm -1.8° 1015.2 hPa 0.8 m/s 207.5 mm 3.6° 1009.5 hPa 4.4 m/s
07:00 -4.2° 1015.2 hPa 1.9 m/s 207.5 mm -4.2° 1015.2 hPa 1.9 m/s 207.5 mm 2.3° 1010.0 hPa 4.2 m/s
10:00 1.4° 1011.1 hPa 5.4 m/s 0.4 mm 1.4° 1011.1 hPa 5.4 m/s 0.4 mm
13:00 1.3° 1011.2 hPa 5.5 m/s 0.9 mm 1.3° 1011.2 hPa 5.5 m/s 0.9 mm
16:00 1.2° 1010.5 hPa 5.4 m/s 0.5 mm 1.2° 1010.5 hPa 5.4 m/s 0.5 mm
19:00 0.2° 1011.1 hPa 5.3 m/s 1.3 mm 0.2° 1011.1 hPa 5.3 m/s 1.3 mm
22:00 -0.6° 1011.7 hPa 5.2 m/s 0.7 mm -0.6° 1011.7 hPa 5.2 m/s 0.7 mm
 07:00     18:01    Daglengte: 11:01 Maandag 26 Feb
01:00 -1.2° 1010.7 hPa 5.5 m/s 1.8 mm -1.2° 1010.7 hPa 5.5 m/s 1.8 mm
04:00 -2.2° 1008.8 hPa 5.4 m/s 1.2 mm -2.2° 1008.8 hPa 5.4 m/s 1.2 mm
07:00 -2.8° 1008.0 hPa 5.0 m/s 2.7 mm -2.8° 1008.0 hPa 5.0 m/s 2.7 mm
10:00 -2.1° 1007.6 hPa 5.0 m/s 1.3 mm -2.1° 1007.6 hPa 5.0 m/s 1.3 mm
13:00 -1.1° 1006.8 hPa 4.5 m/s 2.3 mm -1.1° 1006.8 hPa 4.5 m/s 2.3 mm
16:00 -0.1° 1006.1 hPa 2.9 m/s 0.2 mm -0.1° 1006.1 hPa 2.9 m/s 0.2 mm
19:00 -2.8° 1007.2 hPa 1.7 m/s 0.2 mm -2.8° 1007.2 hPa 1.7 m/s 0.2 mm
22:00 -3.7° 1008.0 hPa 2.2 m/s 0.0 mm -3.7° 1008.0 hPa 2.2 m/s 0.0 mm
 06:58     18:02    Daglengte: 11:04 Dinsdag 27 Feb
01:00 -3.7° 1008.1 hPa 2.4 m/s 0.0 mm -3.7° 1008.1 hPa 2.4 m/s 0.0 mm
04:00 -4.9° 1007.8 hPa 2.0 m/s 0.0 mm -4.9° 1007.8 hPa 2.0 m/s 0.0 mm
07:00 -5.2° 1008.3 hPa 1.8 m/s 0.0 mm -5.2° 1008.3 hPa 1.8 m/s 0.0 mm
10:00 -1.4° 1008.8 hPa 0.3 m/s 0.0 mm -1.4° 1008.8 hPa 0.3 m/s 0.0 mm
13:00 0.7° 1008.9 hPa 1.9 m/s 0.0 mm 0.7° 1008.9 hPa 1.9 m/s 0.0 mm
16:00 1.2° 1009.0 hPa 2.7 m/s 0.0 mm 1.2° 1009.0 hPa 2.7 m/s 0.0 mm
19:00 -2.0° 1010.9 hPa 1.3 m/s 0.0 mm -2.0° 1010.9 hPa 1.3 m/s 0.0 mm
22:00 -2.5° 1013.0 hPa 1.3 m/s 0.0 mm -2.5° 1013.0 hPa 1.3 m/s 0.0 mm
 06:57     18:03    Daglengte: 11:06 Woensdag 28 Feb
01:00 -3.1° 1014.1 hPa 1.6 m/s 0.0 mm -3.1° 1014.1 hPa 1.6 m/s 0.0 mm
04:00 -3.5° 1014.5 hPa 1.8 m/s 0.0 mm -3.5° 1014.5 hPa 1.8 m/s 0.0 mm
07:00 -3.7° 1015.8 hPa 2.0 m/s 0.0 mm -3.7° 1015.8 hPa 2.0 m/s 0.0 mm
10:00 0.0° 1017.1 hPa 0.3 m/s 0.0 mm 0.0° 1017.1 hPa 0.3 m/s 0.0 mm
13:00 2.4° 1017.1 hPa 1.9 m/s 0.0 mm 2.4° 1017.1 hPa 1.9 m/s 0.0 mm
16:00 3.1° 1017.1 hPa 2.1 m/s 0.0 mm 3.1° 1017.1 hPa 2.1 m/s 0.0 mm
19:00 0.3° 1019.1 hPa 1.9 m/s 0.0 mm 0.3° 1019.1 hPa 1.9 m/s 0.0 mm
22:00 -0.9° 1020.6 hPa 1.5 m/s 0.0 mm -0.9° 1020.6 hPa 1.5 m/s 0.0 mm
 06:55     18:05    Daglengte: 11:10 Donderdag 01 Maa
01:00 -1.4° 1020.8 hPa 0.9 m/s 0.0 mm -1.4° 1020.8 hPa 0.9 m/s 0.0 mm
04:00 -0.5° 1019.8 hPa 1.4 m/s 0.0 mm -0.5° 1019.8 hPa 1.4 m/s 0.1 mm
07:00 -0.7° 1019.5 hPa 1.9 m/s 0.3 mm -0.7° 1019.5 hPa 1.9 m/s 0.3 mm
13:00 1.1° 1017.4 hPa 3.3 m/s 0.7 mm 1.1° 1017.4 hPa 3.3 m/s 0.7 mm
19:00 -0.0° 1015.7 hPa 1.0 m/s 4.8 mm -0.0° 1015.7 hPa 1.0 m/s 4.8 mm
 06:53     18:06    Daglengte: 11:13 Vrijdag 02 Maa
01:00 -0.2° 1014.0 hPa 1.3 m/s 6.2 mm -0.2° 1014.0 hPa 1.3 m/s 6.2 mm
07:00 -0.1° 1012.1 hPa 1.4 m/s 3.6 mm -0.1° 1012.1 hPa 1.4 m/s 3.6 mm
13:00 0.9° 1013.1 hPa 0.8 m/s 0.8 mm 0.9° 1013.1 hPa 0.8 m/s 0.8 mm
19:00 0.6° 1013.6 hPa 0.4 m/s 0.3 mm 0.6° 1013.6 hPa 0.4 m/s 0.3 mm
 06:52     18:08    Daglengte: 11:16 Zaterdag 03 Maa
01:00 1.3° 1013.4 hPa 0.8 m/s 0.0 mm 1.3° 1013.4 hPa 0.8 m/s 0.1 mm
07:00 0.6° 1011.5 hPa 0.7 m/s 0.0 mm 0.6° 1011.5 hPa 0.7 m/s 0.0 mm
13:00 3.0° 1009.4 hPa 0.6 m/s 0.0 mm 3.0° 1009.4 hPa 0.6 m/s 0.0 mm
19:00 2.4° 1008.7 hPa 1.0 m/s 0.0 mm 2.4° 1008.7 hPa 1.0 m/s 0.1 mm
 06:50     18:09    Daglengte: 11:19 Zondag 04 Maa
01:00 2.6° 1009.8 hPa 1.3 m/s 0.2 mm 2.6° 1009.8 hPa 1.3 m/s 0.2 mm
07:00 1.3° 1007.7 hPa 0.5 m/s 2.0 mm
13:00 6.2° 1007.3 hPa 0.8 m/s 2.3 mm
19:00 2.7° 1006.8 hPa 0.4 m/s 2.1 mm
 06:48     18:10    Daglengte: 11:22 Maandag 05 Maa
01:00 1.9° 1007.9 hPa 0.4 m/s 2.1 mm
07:00 1.4° 1008.0 hPa 0.4 m/s 1.4 mm
13:00 6.7° 1008.3 hPa 0.7 m/s 1.3 mm
19:00 3.4° 1008.3 hPa 0.2 m/s 1.4 mm
 06:46     18:11    Daglengte: 11:25 Dinsdag 06 Maa
01:00 2.4° 1009.0 hPa 0.2 m/s 1.4 mm
07:00 2.6° 1007.7 hPa 0.5 m/s 2.0 mm
13:00 7.4° 1006.8 hPa 0.9 m/s 2.8 mm
19:00 5.1° 1006.6 hPa 0.4 m/s 1.9 mm
 06:44     18:13    Daglengte: 11:29 Woensdag 07 Maa
01:00 4.1° 1007.9 hPa 0.3 m/s 0.8 mm
07:00 3.2° 1008.4 hPa 0.6 m/s 0.8 mm
13:00 8.5° 1009.4 hPa 1.0 m/s 1.6 mm
19:00 5.5° 1009.7 hPa 0.8 m/s 1.9 mm
 06:43     18:14    Daglengte: 11:31 Donderdag 08 Maa
01:00 4.7° 1011.0 hPa 0.5 m/s 1.2 mm
07:00 4.3° 1010.8 hPa 0.8 m/s 0.9 mm
13:00 9.9° 1010.9 hPa 0.9 m/s 1.2 mm
19:00 6.9° 1010.4 hPa 0.8 m/s 0.9 mm
 06:41     18:15    Daglengte: 11:34 Vrijdag 09 Maa
01:00 5.7° 1010.7 hPa 0.5 m/s 0.9 mm
07:00 5.3° 1009.8 hPa 0.4 m/s 1.1 mm
FMI Hirlam - 7.5 km EWN WRFDA - 12 km DWD ICON - 7 km GFS - 25 km Basiskaart